Weather in Nea Kallikratia

Greece     40°18′36″N   23°03′43″E
temp.,
°C
wind,
m/s
gust,
m/s
humid.,
%
clouds,
%
prec.,
mm/h
press.,
hPa
HPBL,
m
24 may, tue
tue2400:00+21nnw337816 0.3 101018
03:00+21nnw227764 0.3 100914
06:00+20n33828 0.3 101039
09:00+20se33805 0.4 101167
12:00+20se677757 0.0 1012179
15:00+20sse45825 0.0 1012129
18:00+20sse45820 0.0 1011150
21:00+21se577990 0.1 1012122
25 may, wed
wed2500:00+20n338485 1.3 101547
03:00+20wnw448717 1.4 1014116
06:00+20nnw44850 0.0 1014113
09:00+21nw33800 0.0 101556
12:00+21sse22750 0.0 1017112
15:00+22sse45780 0.0 1017195
18:00+21se55810 0.0 1016153
21:00+21se56810 0.1 1017100
26 may, thu
thu2600:00+21ese22800 0.0 101814
03:00+21wnw22780 0.0 101813
06:00+20nw348191 0.0 101852
09:00+20nw348355 0.0 101991
12:00+21w44812 0.0 102084
15:00+23sw44685 0.0 101855
18:00+24se44715 0.0 101784
21:00+22se69765 0.2 101995
27 may, fri
fri2700:00+21sse118437 0.1 101913
03:00+21n5582100 0.3 101987
06:00+21nnw558224 0.1 101896
09:00+21nw56825 0.1 1019106
12:00+22se11795 0.0 101845
15:00+22sse347511 0.0 101788
18:00+23ese56765 0.1 1015163
21:00+21se468318 0.8 101584
28 may, sat
sat2800:00+20wnw5688100 0.4 1016109
03:00+21nw6785100 0.4 1014149
06:00+21nw3382100 0.0 101237
09:00+21nw448187 0.0 101379
12:00+22sw117791 0.0 101251
15:00+23sse2267100 0.0 1012117
18:00+23se44731 0.0 101099
21:00+22se45783 0.1 101053